Location: Sungai Buloh
(3.1000°N, 113.0000°E)
Time: 22:45:52
(UTC+00:00)

Cosmos 1862 Rocket - Pass Details

Date: 12 January 2026
Orbit: 596 x 627 km, 82.5° (Epoch: 10 February)

Event Time Altitude Azimuth Distance (km) Brightness Sun altitude
Rises 12:00:07 0° 193° (SSW) 2,900 7.5 -20.6°
Reaches altitude 10° 12:02:24 10° 199° (SSW) 1,995 6.7 -21.1°
Maximum altitude 12:06:41 50° 274° (W) 802 4.4 -22.1°
Enters shadow 12:10:22 14° 347° (NNW) 1,767 5.8 -23.0°
